Powrót do katalogu

AEROCUBE 16B

AktywnyNaukaVLEO
NORAD 59291·PAYLOAD·🇺🇸 United States

Wystrzelony Mar 21, 2024 z Wallops Flight Facility

Loading…

Następne Przeloty (najbliższe 24 godziny)

TLE

ŚwieżeSource: Space-Track

Epoka: Sep 14, 2026, 07:05 UTC

1 59291U 24053D   26257.29549746  .00013251  00000-0  27245-3 0  9993
2 59291  49.9895 230.9953 0003017   1.5725 358.5248 15.46245536134963

Śledź AEROCUBE 16B w czasie rzeczywistym z AllMySat

Download on the App Store